FACSAT-1 (43721 NORAD) Tracking and Keplerian Element Data

This shows tracking and keplerian element data for the satellite.

Feedback or suggestion? Click here.




ElementValue
Catalog43721
NameFACSAT-1
Epoch Orbit2724
Epoch Day146.78875139
Epoch Year2019
RAAN216.6904
Inclination97.4605
Eccentricity0.001938
Argument of Perigee54.4275
Mean Anonmoly305.8766
Mean Motion15.26225467
Decay Rate9.6E-06
L11 43721U 18096C 19146.78875139 .00000960 00000-0 39777-4 0 9992
L22 43721 97.4605 216.6904 0019380 54.4275 305.8766 15.26225467 27246

Live tracking and technical data element details for FACSAT-1 (NORAD 43721). FACSAT-1 can be tracked NOW for your location showing map with azimuth and elevation plus other details from your city location.

Track the satellite on the map from your city or location and see movement details for azimuth, elevation, latitude, longitude, range, height, and movement on the map or in text.







IsCatalogInMostPopularTable: catalog: 43721, numindb: 60
Update: records affected: 1



GetName: 43721 FACSAT-1

Hit Count: updated at: Mon, 27 May 2019 03:48:03 GMT